sat.trackr.live / text

‹ back to catalog

STARLINK-31028

NORAD 58516 · 2023-191J

PAYLOAD ACTIVE UNKNOWN

§ Identity

Operator
Country
US
Launch date
2023-12-07
Launch site
AFETR
Launch vehicle
Mass (kg)
RCS (m²)

Purposes: comms

External: N2YO · Heavens-Above · Gunter

§ Orbital elements

Epoch: 2026-05-25T01:12:04.370112Z

Period
94.27 min
Inclination
43.0044°
Eccentricity
0.0001023
Mean motion
15.27583075 rev/d
Perigee alt
482.3 km
Apogee alt
483.7 km
Semi-major
6,861.2 km
B*
1.4533e-5
RAAN
31.8439°
Arg perigee
270.7389°
Mean anomaly
89.3345°
Rev number
13,715

§ Raw data

STARLINK-310281 58516U 23191J   26145.05005058  .00000138  00000+0  14533-4 0  99932 58516  43.0044  31.8439 0001023 270.7389  89.3345 15.27583075137154

JSON: /api/v1/satellites/58516 · /tle

For live sub-satellite position, see the globe view (requires WebGL).

§ Visibility from observer

Set your observer location to see the next 7 days of passes ≥ 10°. The values pass through the URL so the page stays shareable.

No JS? Fill the form by hand. The geolocation button needs JavaScript.